This is the latest recevied weather packets stored in our database for station/object NG7N. If no packets are shown the sender has not sent any weather packets the latest 1 day(s).
| Time | Temp. | Humidity | Pressure | Rain* | Wind** | Luminosity | Snow |
|---|---|---|---|---|---|---|---|
| 1777996168 | 12.78° C | 86% | 1015.9 hPa | 0 mm | 0.89 m/s, 202° | - | - |
| 1777994667 | 12.22° C | 86% | 1015.7 hPa | 0 mm | 0.89 m/s, 186° | - | - |
| 1777994367 | 12.22° C | 87% | 1015.7 hPa | 0 mm | 1.34 m/s, 174° | - | - |
| 1777993467 | 12.22° C | 87% | 1015.6 hPa | 0 mm | 0 m/s | - | - |
| 1777993167 | 12.22° C | 87% | 1015.6 hPa | 0 mm | 1.34 m/s, 178° | - | - |
| 1777992567 | 12.22° C | 87% | 1015.6 hPa | 0 mm | 0.89 m/s, 189° | - | - |
| 1777991367 | 12.22° C | 87% | 1015.2 hPa | 0 mm | 0.45 m/s, 197° | - | - |
| 1777991067 | 12.22° C | 87% | 1015.2 hPa | 0 mm | 0.89 m/s, 181° | - | - |
| 1777990467 | 12.22° C | 87% | 1014.9 hPa | 0 mm | 0.89 m/s, 179° | - | - |
| 1777988967 | 11.67° C | 88% | 1014.7 hPa | 0 mm | 1.34 m/s, 208° | - | - |
| 1777987167 | 12.22° C | 88% | 1014.5 hPa | 0 mm | 0.89 m/s, 182° | - | - |
| 1777985667 | 11.67° C | 89% | 1014.1 hPa | 0 mm | 1.34 m/s, 184° | - | - |
| 1777983567 | 11.67° C | 89% | 1013.9 hPa | 0 mm | 0.89 m/s, 155° | - | - |
| 1777982667 | 11.67° C | 90% | 1013.9 hPa | 0 mm | 1.34 m/s, 186° | - | - |
| 1777980867 | 11.67° C | 90% | 1013.8 hPa | 0 mm | 1.34 m/s, 181° | - | - |
| 1777979967 | 11.67° C | 90% | 1013.6 hPa | 0 mm | 0.89 m/s, 192° | - | - |
| 1777979367 | 11.67° C | 90% | 1013.6 hPa | 0 mm | 1.34 m/s, 180° | - | - |
| 1777978167 | 11.67° C | 90% | 1013.4 hPa | 0 mm | 2.24 m/s, 177° | - | - |
| 1777977567 | 11.67° C | 90% | 1013.4 hPa | 0 mm | 1.34 m/s, 172° | - | - |
| 1777977266 | 11.67° C | 90% | 1013.4 hPa | 0 mm | 2.24 m/s, 156° | - | - |
| 1777976366 | 11.67° C | 90% | 1013.3 hPa | 0 mm | 1.34 m/s, 174° | - | - |
| 1777974567 | 11.67° C | 90% | 1013.1 hPa | 0 mm | 1.34 m/s, 193° | - | - |
| 1777974266 | 11.67° C | 90% | 1013 hPa | 0 mm | 2.68 m/s, 191° | - | - |
* Rain latest hour (hover to see other rain measurements)
** Current wind speed in m/s (hover to see current wind gust speed)